Time,TemperatureF,DewpointF,PressureIn,WindDirection,WindDirectionDegrees,WindSpeedMPH,WindSpeedGustMPH,Humidity,HourlyPrecipIn,Conditions,Clouds,dailyrainin,SoftwareType,DateUTC
2013-01-31 00:04:00,52.0,-99.9,-100.00,North,-999,-999.0,-999.0,-999,0.00,,,0.04,,2013-01-31 05:04:00,
2013-01-31 00:12:00,52.0,-99.9,-100.00,North,-999,-999.0,-999.0,-999,0.00,,,0.04,,2013-01-31 05:12:00,
2013-01-31 00:22:00,52.0,-99.9,-100.00,North,-999,-999.0,-999.0,-999,0.00,,,0.04,,2013-01-31 05:22:00,
2013-01-31 09:03:00,43.0,-99.9,-100.00,North,-999,-999.0,-999.0,-999,0.04,,,1.15,,2013-01-31 14:03:00,
2013-01-31 09:30:00,38.0,-99.9,-100.00,North,-999,-999.0,-999.0,-999,0.04,,,1.19,,2013-01-31 14:30:00,
2013-01-31 09:53:00,38.0,-99.9,-100.00,North,-999,-999.0,-999.0,-999,0.04,,,1.19,,2013-01-31 14:53:00,
2013-01-31 10:04:00,38.0,-99.9,-100.00,North,-999,-999.0,-999.0,-999,0.04,,,1.19,,2013-01-31 15:04:00,
2013-01-31 10:12:00,38.0,-99.9,-100.00,North,-999,-999.0,-999.0,-999,0.04,,,1.19,,2013-01-31 15:12:00,
2013-01-31 10:23:00,38.0,-99.9,-100.00,North,-999,-999.0,-999.0,-999,0.04,,,1.19,,2013-01-31 15:23:00,
2013-01-31 10:30:00,39.0,-99.9,-100.00,North,-999,-999.0,-999.0,-999,0.03,,,1.22,,2013-01-31 15:30:00,
2013-01-31 10:53:00,39.0,-99.9,-100.00,North,-999,-999.0,-999.0,-999,0.03,,,1.22,,2013-01-31 15:53:00,
2013-01-31 11:04:00,39.0,-99.9,-100.00,North,-999,-999.0,-999.0,-999,0.03,,,1.22,,2013-01-31 16:04:00,
2013-01-31 11:13:00,39.0,-99.9,-100.00,North,-999,-999.0,-999.0,-999,0.03,,,1.22,,2013-01-31 16:13:00,
2013-01-31 11:22:00,39.0,-99.9,-100.00,North,-999,-999.0,-999.0,-999,0.03,,,1.22,,2013-01-31 16:22:00,
2013-01-31 11:30:00,39.0,-99.9,-100.00,North,-999,-999.0,-999.0,-999,0.00,,,1.22,,2013-01-31 16:30:00,
2013-01-31 11:53:00,39.0,-99.9,-100.00,North,-999,-999.0,-999.0,-999,0.00,,,1.22,,2013-01-31 16:53:00,
2013-01-31 12:03:00,39.0,-99.9,-100.00,North,-999,-999.0,-999.0,-999,0.00,,,1.22,,2013-01-31 17:03:00,
2013-01-31 12:13:00,39.0,-99.9,-100.00,North,-999,-999.0,-999.0,-999,0.00,,,1.22,,2013-01-31 17:13:00,
2013-01-31 12:23:00,39.0,-99.9,-100.00,North,-999,-999.0,-999.0,-999,0.00,,,1.22,,2013-01-31 17:23:00,
2013-01-31 12:30:00,37.0,-99.9,-100.00,North,-999,-999.0,-999.0,-999,0.00,,,1.22,,2013-01-31 17:30:00,
2013-01-31 13:04:00,37.0,-99.9,-100.00,North,-999,-999.0,-999.0,-999,0.00,,,1.22,,2013-01-31 18:04:00,
2013-01-31 13:13:00,37.0,-99.9,-100.00,North,-999,-999.0,-999.0,-999,0.00,,,1.22,,2013-01-31 18:13:00,
2013-01-31 13:22:00,37.0,-99.9,-100.00,North,-999,-999.0,-999.0,-999,0.00,,,1.22,,2013-01-31 18:22:00,
2013-01-31 13:30:00,36.0,-99.9,-100.00,North,-999,-999.0,-999.0,-999,0.00,,,1.22,,2013-01-31 18:30:00,
2013-01-31 13:53:00,36.0,-99.9,-100.00,North,-999,-999.0,-999.0,-999,0.00,,,1.22,,2013-01-31 18:53:00,
2013-01-31 14:03:00,36.0,-99.9,-100.00,North,-999,-999.0,-999.0,-999,0.00,,,1.22,,2013-01-31 19:03:00,
2013-01-31 14:13:00,36.0,-99.9,-100.00,North,-999,-999.0,-999.0,-999,0.00,,,1.22,,2013-01-31 19:13:00,
2013-01-31 14:22:00,36.0,-99.9,-100.00,North,-999,-999.0,-999.0,-999,0.00,,,1.22,,2013-01-31 19:22:00,
2013-01-31 14:30:00,36.0,-99.9,-100.00,North,-999,-999.0,-999.0,-999,0.00,,,1.21,,2013-01-31 19:30:00,
2013-01-31 14:53:00,36.0,-99.9,-100.00,North,-999,-999.0,-999.0,-999,0.00,,,1.21,,2013-01-31 19:53:00,
2013-01-31 15:03:00,36.0,-99.9,-100.00,North,-999,-999.0,-999.0,-999,0.00,,,1.21,,2013-01-31 20:03:00,
2013-01-31 15:12:00,36.0,-99.9,-100.00,North,-999,-999.0,-999.0,-999,0.00,,,1.21,,2013-01-31 20:12:00,
2013-01-31 15:22:00,36.0,-99.9,-100.00,North,-999,-999.0,-999.0,-999,0.00,,,1.21,,2013-01-31 20:22:00,
2013-01-31 15:30:00,34.0,-99.9,-100.00,North,-999,-999.0,-999.0,-999,0.00,,,1.21,,2013-01-31 20:30:00,
2013-01-31 15:53:00,34.0,-99.9,-100.00,North,-999,-999.0,-999.0,-999,0.00,,,1.21,,2013-01-31 20:53:00,
2013-01-31 16:03:00,34.0,-99.9,-100.00,North,-999,-999.0,-999.0,-999,0.00,,,1.21,,2013-01-31 21:03:00,
2013-01-31 16:13:00,34.0,-99.9,-100.00,North,-999,-999.0,-999.0,-999,0.00,,,1.21,,2013-01-31 21:13:00,
2013-01-31 16:22:00,34.0,-99.9,-100.00,North,-999,-999.0,-999.0,-999,0.00,,,1.21,,2013-01-31 21:22:00,
2013-01-31 16:30:00,32.0,-99.9,-100.00,North,-999,-999.0,-999.0,-999,0.00,,,1.21,,2013-01-31 21:30:00,
2013-01-31 17:03:00,32.0,-99.9,-100.00,North,-999,-999.0,-999.0,-999,0.00,,,1.21,,2013-01-31 22:03:00,
2013-01-31 17:11:00,32.0,-99.9,-100.00,North,-999,-999.0,-999.0,-999,0.00,,,1.21,,2013-01-31 22:11:00,
2013-01-31 17:22:00,32.0,-99.9,-100.00,North,-999,-999.0,-999.0,-999,0.00,,,1.21,,2013-01-31 22:22:00,
2013-01-31 17:30:00,31.0,-99.9,-100.00,North,-999,-999.0,-999.0,-999,0.00,,,1.21,,2013-01-31 22:30:00,
2013-01-31 17:52:00,31.0,-99.9,-100.00,North,-999,-999.0,-999.0,-999,0.00,,,1.21,,2013-01-31 22:52:00,
2013-01-31 18:03:00,31.0,-99.9,-100.00,North,-999,-999.0,-999.0,-999,0.00,,,1.21,,2013-01-31 23:03:00,
2013-01-31 18:12:00,31.0,-99.9,-100.00,North,-999,-999.0,-999.0,-999,0.00,,,1.21,,2013-01-31 23:12:00,
2013-01-31 18:22:00,31.0,-99.9,-100.00,North,-999,-999.0,-999.0,-999,0.00,,,1.21,,2013-01-31 23:22:00,
2013-01-31 18:30:00,30.0,-99.9,-100.00,North,-999,-999.0,-999.0,-999,0.00,,,-99.99,,2013-01-31 23:30:00,
2013-01-31 19:02:00,30.0,-99.9,-100.00,North,-999,-999.0,-999.0,-999,0.00,,,-99.99,,2013-02-01 00:02:00,
2013-01-31 19:12:00,30.0,-99.9,-100.00,North,-999,-999.0,-999.0,-999,0.00,,,-99.99,,2013-02-01 00:12:00,
2013-01-31 19:22:00,30.0,-99.9,-100.00,North,-999,-999.0,-999.0,-999,0.00,,,-99.99,,2013-02-01 00:22:00,
2013-01-31 19:30:00,29.0,-99.9,-100.00,North,-999,-999.0,-999.0,-999,0.00,,,1.19,,2013-02-01 00:30:00,
2013-01-31 19:52:00,29.0,-99.9,-100.00,North,-999,-999.0,-999.0,-999,0.00,,,1.19,,2013-02-01 00:52:00,
2013-01-31 20:02:00,29.0,-99.9,-100.00,North,-999,-999.0,-999.0,-999,0.00,,,1.19,,2013-02-01 01:02:00,
2013-01-31 20:12:00,29.0,-99.9,-100.00,North,-999,-999.0,-999.0,-999,0.00,,,1.19,,2013-02-01 01:12:00,
2013-01-31 20:22:00,29.0,-99.9,-100.00,North,-999,-999.0,-999.0,-999,0.00,,,1.19,,2013-02-01 01:22:00,
2013-01-31 20:30:00,27.0,-99.9,-100.00,North,-999,-999.0,-999.0,-999,0.00,,,1.19,,2013-02-01 01:30:00,
2013-01-31 20:52:00,27.0,-99.9,-100.00,North,-999,-999.0,-999.0,-999,0.00,,,1.19,,2013-02-01 01:52:00,
2013-01-31 21:03:00,27.0,-99.9,-100.00,North,-999,-999.0,-999.0,-999,0.00,,,1.19,,2013-02-01 02:03:00,
2013-01-31 21:12:00,27.0,-99.9,-100.00,North,-999,-999.0,-999.0,-999,0.00,,,1.19,,2013-02-01 02:12:00,
2013-01-31 21:22:00,27.0,-99.9,-100.00,North,-999,-999.0,-999.0,-999,0.00,,,1.19,,2013-02-01 02:22:00,
2013-01-31 21:30:00,27.0,-99.9,-100.00,North,-999,-999.0,-999.0,-999,0.00,,,1.19,,2013-02-01 02:30:00,
2013-01-31 21:53:00,27.0,-99.9,-100.00,North,-999,-999.0,-999.0,-999,0.00,,,1.19,,2013-02-01 02:53:00,
2013-01-31 22:02:00,27.0,-99.9,-100.00,North,-999,-999.0,-999.0,-999,0.00,,,1.19,,2013-02-01 03:02:00,
2013-01-31 22:12:00,27.0,-99.9,-100.00,North,-999,-999.0,-999.0,-999,0.00,,,1.19,,2013-02-01 03:12:00,
2013-01-31 22:22:00,27.0,-99.9,-100.00,North,-999,-999.0,-999.0,-999,0.00,,,1.19,,2013-02-01 03:22:00,
2013-01-31 22:30:00,26.0,-99.9,-100.00,North,-999,-999.0,-999.0,-999,0.00,,,-99.99,,2013-02-01 03:30:00,
2013-01-31 22:52:00,26.0,-99.9,-100.00,North,-999,-999.0,-999.0,-999,0.00,,,-99.99,,2013-02-01 03:52:00,
2013-01-31 23:02:00,26.0,-99.9,-100.00,North,-999,-999.0,-999.0,-999,0.00,,,-99.99,,2013-02-01 04:02:00,
2013-01-31 23:12:00,26.0,-99.9,-100.00,North,-999,-999.0,-999.0,-999,0.00,,,-99.99,,2013-02-01 04:12:00,
2013-01-31 23:22:00,26.0,-99.9,-100.00,North,-999,-999.0,-999.0,-999,0.00,,,-99.99,,2013-02-01 04:22:00,
2013-01-31 23:30:00,25.0,-99.9,-100.00,North,-999,-999.0,-999.0,-999,0.00,,,1.19,,2013-02-01 04:30:00,